New York, NY

8:19 AM EDT on August 22, 2017 (GMT -0400)
La Guardia

Weather History for KLGA - December, 2011

Change the Weather History Date:

Wednesday, December 14, 2011

  Actual Average Record
Temperature  
Mean Temperature 44 °F 39 °F  
Max Temperature 48 °F 45 °F 64 °F (2015)
Min Temperature 39 °F 33 °F 12 °F (1976)
Degree Days  
Heating Degree Days 21 26  
Month to date heating degree days 283 338  
Since 1 July heating degree days 905 1113  
Cooling Degree Days 0 0  
Month to date cooling degree days 0 0  
Year to date cooling degree days 1375 1214  
Moisture  
Dew Point 32 °F    
Average Humidity 60    
Maximum Humidity 70    
Minimum Humidity 50    
Precipitation  
Precipitation 0.00 in 0.11 in 1.75 in (1953)
Month to date precipitation 1.84 1.71  
Year to date precipitation 63.26 42.88  
Snow  
Snow 0.00 in 0.20 in 4.80 in (2003)
Month to date snowfall 0.0 1.6  
Since 1 July snowfall 1.7 1.9  
Snow Depth 0.00 in    
Sea Level Pressure  
Sea Level Pressure 30.37 in    
Wind  
Wind Speed 6 mph (East)    
Max Wind Speed 13 mph    
Max Gust Speed 16 mph    
Visibility 10 miles    
Events      
T = Trace of Precipitation, MM = Missing Value Source: NWS Daily Summary

Daily Weather History Graph

Daily Weather History Graph

Search for Another Location

Airport or City:

Trip Planner

Search our weather history database for the weather conditions in past years. The results will help you decide how hot, cold, wet, or windy it might be!

Date:

Astronomy

Dec. 14, 2011 Rise Set
Actual Time 7:11 AM EST 4:28 PM EST
Civil Twilight 6:40 AM EST 4:59 PM EST
Nautical Twilight 6:06 AM EST 5:33 PM EST
Astronomical Twilight 5:32 AM EST 6:07 PM EST
Moon 8:46 PM EST (12/14) 9:54 AM EST (12/14)
Length of Visible Light 10h 18m
Length of Day
9h 16m
Waning Gibbous, 83% of the Moon is Illuminated
Dec 14
Waning Gibbous
Dec 17
Last Quarter
Dec 24
New
Jan 1
First Quarter
Jan 9
Full

Hourly Weather History & Observations

Time (EST) Temp. Windchill Dew Point Humidity Pressure Visibility Wind Dir Wind Speed Gust Speed Precip Events Conditions
12:51 AM 42.1 °F 37.1 °F 28.9 °F 60% 30.37 in 10.0 mi NW 8.1 mph - N/A   Partly Cloudy
1:51 AM 41.0 °F 38.0 °F 28.9 °F 62% 30.37 in 10.0 mi NW 4.6 mph - N/A   Clear
2:51 AM 41.0 °F 35.2 °F 28.9 °F 62% 30.37 in 10.0 mi NNW 9.2 mph - N/A   Partly Cloudy
3:51 AM 41.0 °F 38.0 °F 28.9 °F 62% 30.36 in 10.0 mi NNW 4.6 mph - N/A   Mostly Cloudy
4:51 AM 41.0 °F 37.1 °F 30.0 °F 65% 30.36 in 10.0 mi NNW 5.8 mph - N/A   Mostly Cloudy
5:51 AM 39.9 °F - 28.9 °F 65% 30.38 in 10.0 mi Calm Calm - N/A   Partly Cloudy
6:51 AM 39.0 °F 36.8 °F 30.0 °F 70% 30.40 in 10.0 mi NE 3.5 mph - N/A   Partly Cloudy
7:51 AM 39.9 °F 36.7 °F 30.0 °F 68% 30.39 in 10.0 mi NE 4.6 mph - N/A   Partly Cloudy
8:51 AM 41.0 °F 39.0 °F 30.0 °F 65% 30.41 in 10.0 mi ENE 3.5 mph - N/A   Partly Cloudy
9:51 AM 43.0 °F 40.3 °F 30.9 °F 62% 30.42 in 10.0 mi ENE 4.6 mph - N/A   Partly Cloudy
10:51 AM 45.0 °F 42.6 °F 30.9 °F 58% 30.41 in 10.0 mi East 4.6 mph - N/A   Partly Cloudy
11:51 AM 46.0 °F 43.1 °F 32.0 °F 58% 30.39 in 10.0 mi ENE 5.8 mph - N/A   Scattered Clouds
12:51 PM 46.9 °F - 32.0 °F 56% 30.38 in 10.0 mi ENE 5.8 mph - N/A   Scattered Clouds
1:51 PM 48.0 °F - 30.9 °F 52% 30.36 in 10.0 mi ENE 3.5 mph - N/A   Scattered Clouds
2:51 PM 48.0 °F - 32.0 °F 54% 30.35 in 10.0 mi NE 4.6 mph - N/A   Scattered Clouds
3:51 PM 46.9 °F - 33.1 °F 59% 30.36 in 10.0 mi ENE 6.9 mph - N/A   Scattered Clouds
4:51 PM 46.0 °F 41.9 °F 35.1 °F 66% 30.36 in 10.0 mi ESE 8.1 mph - N/A   Scattered Clouds
5:51 PM 46.0 °F 41.9 °F 34.0 °F 63% 30.36 in 10.0 mi SSE 8.1 mph - N/A   Mostly Cloudy
6:51 PM 46.0 °F 41.4 °F 35.1 °F 66% 30.37 in 10.0 mi South 9.2 mph - N/A   Overcast
7:51 PM 46.4 °F 42.9 °F 35.6 °F 66% 30.38 in 10.0 mi South 6.9 mph - N/A   Overcast
8:51 PM 46.9 °F - 35.1 °F 63% 30.36 in 10.0 mi South 5.8 mph - N/A   Overcast
9:51 PM 46.0 °F 41.0 °F 35.1 °F 66% 30.34 in 10.0 mi South 10.4 mph - N/A   Overcast
10:51 PM 46.9 °F - 36.0 °F 66% 30.33 in 10.0 mi South 8.1 mph - N/A   Overcast
11:51 PM 46.9 °F - 37.0 °F 68% 30.32 in 10.0 mi South 10.4 mph - N/A   Overcast